AirNav   ProFlight Series 2 Aviation Headset
 
 1152 users online  

04FL Cross Creek Farms Airport
Ormond, Florida, USA

GOING TO ORMOND?


FAA INFORMATION EFFECTIVE 08 OCTOBER 2020

Location

FAA Identifier: 04FL
Lat/Long: 29-14-21.9290N 081-13-19.2180W
29-14.365483N 081-13.320300W
29.2394247,-81.2220050
(estimated)
Elevation: 30 ft. / 9 m (estimated)
Variation: 03W (1985)
From city: 10 miles W of ORMOND, FL
Time zone: UTC -4 (UTC -5 during Standard Time)
Zip code: 32174

Airport Operations

Airport use: Private use. Permission required prior to landing
Activation date: 07/1990
Control tower: no
ARTCC: JACKSONVILLE CENTER
FSS: SAINT PETERSBURG FLIGHT SERVICE STATION
Attendance: UNATNDD
Segmented circle: no

Airport Communications

WX AWOS-3 at OMN (7 nm NE): 118.475 (386-615-7084)
WX ASOS at DAB (9 nm SE): 132.875 (386-257-6444)
WX AWOS-3 at DED (11 nm S): 119.575 (386-740-5811)
WX AWOS-3 at FIN (14 nm N): 128.325 (386-437-7334)
WX AWOS-3 at EVB (18 nm SE): 124.625 (386-409-4705)

Nearby radio navigation aids

VOR radial/distance  VOR name  Freq  Var
OMNr236/6.9ORMOND BEACH VORTAC112.6000E

Airport Services

Runway Information

Runway 9/27

Dimensions: 3000 x 100 ft. / 914 x 30 m
Surface: turf
RUNWAY 9  RUNWAY 27
Traffic pattern: leftleft
Obstructions: 75 ft. trees, 100 ft. from runway75 ft. trees, 100 ft. from runway

Airport Ownership and Management from official FAA records

Ownership: Privately-owned
Owner: DAVID HIGGS
274 WOODHAVEN CIRCLE NORTH
ORMOND BEACH, FL 32174
Phone 386-566-7041
Manager: DAVID HIGGS
274 WOODHAVEN CIRCLE NORTH
ORMOND BEACH, FL 32174
Phone 386-566-7041

Airport Operational Statistics

Aircraft based on the field: 2
Single engine airplanes: 2
    

Additional Remarks

FOR CD CTC DAYTONA APCH AT 386-226-3939.

Instrument Procedures

There are no published instrument procedures at 04FL.

Some nearby airports with instrument procedures:

KOMN - Ormond Beach Municipal Airport (7 nm NE)
KDAB - Daytona Beach International Airport (9 nm SE)
KDED - DeLand Municipal Airport-Sidney H Taylor Field (11 nm S)
KFIN - Flagler Executive Airport (14 nm N)
KEVB - New Smyrna Beach Municipal Airport (18 nm SE)
 
Loc | Ops | Rwys | IFR | FBO | Links
Com | Nav | Svcs | Stats | Notes
Area around 04FL (Cross Creek Farms Airport)
 
Road maps at: MapQuest Bing Google
 
Aerial photo
WARNING: Photo may not be current or correct
Aerial photo of 04FL (Cross Creek Farms Airport)
Do you have a better or more recent aerial photo of Cross Creek Farms Airport that you would like to share? If so, please send us your photo.

 
Sectional chart

 
Airport distance calculator
Flying to Cross Creek Farms Airport? Find the distance to fly.

From to 04FL

Sunrise and sunset
Times for 25-Oct-2020
 Local
(UTC-4)
 Zulu
(UTC)
Morning civil twilight07:1011:10
Sunrise07:3411:34
Sunset18:4322:43
Evening civil twilight19:0823:08

Current date and time
Zulu (UTC)  25-Oct-2020 20:24:27
Local (UTC-4)  25-Oct-2020 16:24:27
 
METAR
KOMN 
7nm NE 
251950Z 05007KT 10SM SCT016 SCT070 28/23 A2987
KDAB 
9nm E 
251953Z 05009KT 10SM FEW025 FEW045 BKN075 28/24 A2987 RMK AO2 SLP113 T02830244 $
KDED 
11nm S 
251950Z AUTO 05008KT 10SM SCT060 OVC075 29/23 A2987 RMK AO2 T02930229
KFIN 
14nm N 
251950Z 04009KT 10SM CLR 28/22 A2987
KEVB 
18nm SE 
251947Z 10SM SCT025 RMK AWOS OTS.
TAF
KDAB 
9nm E 
251739Z 2518/2618 07007KT P6SM VCSH SCT030 BKN050 FM252300 VRB04KT P6SM SCT040 FM261600 06007KT P6SM SCT020 SCT040
NOTAMs
Click for the latest NOTAMs
NOTAMs are issued by the DoD/FAA and will open in a separate window not controlled by AirNav.

 

 
 

Would you like to see your business listed on this page?

 If your business provides an interesting product or service to pilots, flight crews, aircraft, or users of the Cross Creek Farms Airport, you should consider listing it here.  To start the listing process, click on the button below
 
Add a business
 

Other Pages about Cross Creek Farms Airport

Update a link
 
Copyright © AirNav, LLC. All rights reserved. Privacy Policy  Contact